Location: Hurecourt
(47.9030°N, 6.0653°E)
Time: 21:01:16
(UTC+00:00)

Cosmos 1900 - Pass Details

Date: 14 July 2020
Orbit: 681 x 740 km, 66.1° (Epoch: 14 August)

Event Time Altitude Azimuth Distance (km) Brightness Sun altitude
Exits shadow 02:29:33 15° 218° (SW) 1,831 5.8 -11.0°
Maximum altitude 02:33:37 83° 305° (NW) 714 4.3 -10.5°
Drops below altitude 10° 02:38:38 10° 35° (NE) 2,198 8.5 -10.0°
Sets 02:41:01 0° 36° (NE) 3,131 9.9 -9.7°
